COSMOS 1275 DEB, 42113

Orbit data source: Space-Track

COSMOS 1275 DEB, 42113 is space debris in LEO originally from a launch on Thu, 04 Jun 1981 UTC launched from the Plesetsk Missile And Space Complex (PKMTR). Debris objects in space refer to the collection of defunct objects orbiting the Earth. Examples of debris include non-operational satellites, rocket bodies, and fragments generated from explosions, collisions, or faulty payload assembly.

Loading next visibility...
Identifier
42113, 1981-053PZ
Orbit
LEO
Country
Flag of CISCIS
Related business
Manufacturer
Unknown
Mission
Spacecraft
Bus & Motor
Unknown
Mass
Unknown
Launch date (UTC)
1981-06-04 (45 years ago)
Launch vehicle
Unknown
Launch site
Plesetsk Missile And Space Complex (PKMTR)
Object type
Payload
Rocket body
Debris
Shape & HBR
Unknown shape, 0.1 m
Radar Cross Section
Small (<0.1 m²)

Expand to show TLE details & history
Last TLE update: 16 hours ago

TLE from 16 hours ago
0 COSMOS 1275 DEB
1 42113U 81053PZ  26145.28640824  .00000542  00000-0  49362-3 0  9998
2 42113  82.7474 253.2302 0190878  31.5539 358.0144 13.73811125624853
Epoch: 2026-05-25T06:52Z
TLE epoch observation values (Epoch: 2026-05-25T06:52:25.671Z)
Latitude
29.28043°
Longitude
-88.68282°
Altitude
849.045 km
Speed
7.501 km/s
True Right ascension
17h 09m 12s
True Declination
29° 08' 09"
Sunlit
Object was in full shadow at epoch
Visualization orbit readout
Latitude
Unknown
Longitude
Unknown
Altitude
Unknown
Speed
Unknown
Apparent Right ascension
Unknown
Apparent Declination
Unknown
Sunlit
N/A
Visualization observer readout
Local Sidereal Time
08:14:18
Azimuth
Unknown
Elevation
Unknown
Doppler factor
Unknown
Orbital elements
Apogee altitude
1,123.586 km
Perigee altitude
842.567 km
Semi-major axis
7,361.214 km
Eccentricity
0.01909
Inclination
82.7474°
RAAN
253.2302°
Arg. of periapsis
31.5539°
True anomaly
357.93676°
Mean anomaly
358.0144°
Eccentric anomaly
357.97577°
Mean motion
3.43652 °/min
Orbital period
104.76 mins
BSTAR
0.00049362
Loading maneuver chart data...
Computing Atmospheric mass density...
Loading historical data...
Loading historical data...
Loading historical data...
Loading historical data...
Loading historical data...
Loading historical data...
Loading historical data...

Documentation

Showing up to 5 results
|